Weather in Zarevo

Russia / Republic of Adygea     45°00′05″N   40°04′42″E
temp.,
°C
wind,
m/s
gust,
m/s
humid.,
%
clouds,
%
prec.,
mm/h
press.,
hPa
HPBL,
m
10 may, mon
mon1000:00+5sw5118964 0.0 1023212
03:00+5wsw489067 0.2 1023159
06:00+5wsw489210 0.3 1023198
09:00+11w69675 0.6 10231353
12:00+12w796085 0.9 10221905
15:00+12wnw71065100 1.7 10211858
18:00+11w6116699 0.3 1020673
21:00+7sw51171100 0.3 1020276
11 may, tue
tue1100:00+8sw71559100 0.0 1018550
03:00+9sw91463100 0.0 10161217
06:00+8sw101676100 0.2 10161269
09:00+10sw91779100 1.3 10151379
12:00+11sw91674100 0.8 10151614
15:00+13sw101566100 1.1 10161842
18:00+11sse3677100 0.3 1017343
21:00+9se2280100 0.5 101832
12 may, wed
wed1200:00+9e2390100 0.1 101765
03:00+8ese369690 0.1 1016123
06:00+7ese2695100 0.0 1017170
09:00+13ese34785 0.0 1016576
12:00+17e33625 0.0 10161053
15:00+19e455730 0.0 10151234
18:00+18ene36735 0.0 1014256
21:00+13e410870 0.0 1014165
13 may, thu
thu1300:00+11e4119045 0.0 1013179
03:00+10ese479374 0.0 1012113
06:00+10ese35905 0.0 101399
09:00+18e456699 0.0 1012297
12:00+23e45575 0.0 1012634
15:00+26e576018 0.0 1011854
18:00+22e61275100 0.0 1011431
21:00+18e513860 0.0 1011261
14 may, fri
fri1400:00+15e49941 0.0 1010131
03:00+15ese33890 0.0 101038
06:00+15ese227456 0.0 101124
09:00+23e225719 0.0 1011193
12:00+28ene335128 0.0 1011448
15:00+30ene455649 0.0 1010611
18:00+26e377611 0.0 1010168
21:00+21ese4789100 0.0 1010100